Wind_Speed
70 72 75 78 81 82 82 82 82 82 83 86 87 87 85 84 83 83 82 82 82 83 84 86 88 89 90 90 89 89 88 87 87 88 91 92 92 89 83 76 70 64
73 75 78 81 83 83 83 83 83 83 85 87 89 88 86 84 83 83 83 83 83 84 86 89 90 91 92 91 91 91 90 89 91 93 95 94 91 85 77 69 63 60
76 78 81 83 84 83 83 83 83 84 86 88 90 89 87 85 84 83 84 85 85 86 88 91 93 93 93 93 93 93 93 94 95 97 96 91 85 77 67 61 58 57
78 81 83 84 83 83 83 83 83 85 87 89 90 89 87 86 85 85 85 86 87 89 90 93 94 94 94 95 95 96 97 99 99 97 93 83 75 67 58 55 55 55
81 83 84 84 83 83 83 83 84 86 88 90 90 89 88 87 86 86 87 88 90 91 93 94 95 96 96 96 98 99 101 102 98 92 83 72 64 58 52 51 52 53
83 84 84 83 83 83 83 83 85 87 89 90 90 90 89 88 88 88 89 90 92 94 95 96 97 98 98 99 101 103 103 99 90 81 71 61 55 50 48 49 49 51
84 83 83 82 82 83 83 84 86 88 89 90 90 90 89 88 89 90 92 93 95 96 97 97 98 99 100 102 104 103 98 90 79 68 59 52 47 45 44 46 47 48
83 82 82 81 81 82 83 85 87 88 90 90 90 89 89 90 91 92 94 96 97 97 98 99 99 101 103 105 103 97 88 77 66 57 50 45 43 41 42 44 45 47
82 81 81 80 81 82 83 85 87 89 90 90 89 89 89 91 93 94 96 98 99 99 99 100 102 104 105 104 97 86 75 65 56 49 44 41 40 39 40 42 43 46
81 80 79 79 80 82 84 86 88 89 91 90 89 89 91 93 95 97 98 99 100 100 100 102 105 106 104 98 86 72 63 55 48 44 41 39 38 38 39 41 43 46
80 79 78 78 80 82 84 86 89 90 90 90 90 90 92 94 97 98 99 100 101 101 102 104 106 105 99 87 72 61 55 49 43 41 40 37 37 38 39 41 44 46
78 77 77 78 80 82 84 86 88 89 89 89 90 91 93 96 98 99 100 101 101 102 104 105 104 100 89 74 60 53 50 45 41 39 37 36 37 38 39 42 44 46
76 76 76 77 79 81 83 86 88 88 88 89 90 92 95 97 99 100 101 102 103 104 106 104 99 90 77 63 53 49 45 42 39 35 34 35 37 39 40 42 43 43
75 75 76 77 79 81 83 85 87 87 88 89 91 93 96 98 100 101 101 102 104 106 105 100 90 78 66 55 49 45 42 39 35 31 32 35 38 40 41 40 40 41
75 75 76 78 79 81 83 84 86 86 87 89 92 94 97 99 100 102 102 104 105 106 102 93 80 68 58 52 47 42 38 35 31 30 32 36 39 41 40 38 38 39
75 75 77 78 79 81 82 84 85 86 87 89 92 95 97 99 100 102 103 105 105 102 94 82 70 60 54 51 45 40 36 32 30 31 33 36 39 40 38 36 37 36
75 76 77 78 80 81 82 83 84 86 87 90 92 95 97 99 101 102 104 104 102 96 83 70 62 57 53 49 44 38 34 32 32 32 34 36 39 39 37 35 35 34
75 76 77 78 79 80 81 83 84 86 88 90 92 95 97 99 101 102 103 102 97 87 72 61 57 55 52 47 41 36 34 34 35 36 36 37 37 37 35 34 34 33
76 76 77 78 79 80 81 82 84 86 88 90 92 95 97 99 100 102 102 99 91 77 63 56 55 53 49 43 37 35 36 37 38 40 40 37 35 34 33 32 32 32
76 76 77 78 78 79 81 82 84 86 88 90 93 95 97 98 100 101 99 94 83 68 57 54 54 50 45 39 35 35 38 40 41 42 41 36 32 32 31 31 31 32
75 75 76 77 77 79 80 82 84 86 88 90 93 95 97 99 100 98 94 87 75 62 54 53 52 47 41 37 35 36 39 41 43 42 37 32 30 30 29 30 31 34
74 75 76 76 77 78 80 82 84 86 88 90 93 95 97 99 99 95 88 79 69 58 53 52 50 44 39 36 36 38 40 43 43 38 32 29 28 29 29 29 31 37
74 74 75 76 76 77 79 81 84 86 88 90 93 95 97 98 96 90 80 70 64 58 52 49 46 42 38 38 38 39 42 44 41 35 30 28 28 29 29 29 32 40
73 74 74 75 76 77 79 81 83 86 88 90 92 95 97 96 92 84 71 62 61 59 52 46 42 39 37 38 39 41 44 44 39 32 30 29 29 28 28 29 34 42
72 73 74 74 75 77 79 81 83 85 88 90 92 95 96 94 88 78 64 57 60 61 53 44 39 38 37 38 40 43 45 43 37 32 31 31 29 28 28 30 36 44
72 73 73 74 75 77 79 81 83 85 88 90 92 94 94 90 84 73 59 54 59 62 54 43 37 37 37 38 41 43 44 43 37 33 33 31 28 26 27 31 39 45
Wind_Direction
310 312 313 313 312 309 307 305 304 305 306 307 308 308 308 308 308 308 307 306 306 306 306 305 305 305 305 304 303 302 300 299 298 296 296 295 295 293 290 285 278 266
312 313 313 312 310 308 306 305 304 305 306 307 308 309 309 309 309 308 307 307 307 307 307 307 307 306 306 305 303 302 301 299 299 298 297 297 295 292 287 279 270 258
313 313 313 311 309 307 306 305 305 305 306 308 309 310 310 310 310 309 308 308 308 308 308 308 307 307 306 305 304 303 302 301 301 300 299 297 293 289 282 271 261 250
313 313 311 309 308 306 306 305 305 306 307 308 310 311 311 311 310 310 309 310 310 309 309 309 308 307 307 306 304 304 303 303 303 301 299 296 290 284 274 262 253 245
312 311 309 308 307 306 306 306 306 307 308 309 310 311 311 311 311 310 310 310 310 310 310 309 309 308 307 306 305 305 305 304 303 301 297 292 286 277 265 253 248 242
310 309 308 307 306 306 306 306 307 308 309 310 311 311 311 312 311 311 311 311 311 311 311 310 309 309 308 307 307 307 306 305 302 299 294 288 280 270 257 249 246 241
309 308 307 307 306 306 306 307 308 309 310 311 312 312 312 312 312 312 312 312 312 312 312 311 310 309 309 308 308 308 306 304 301 296 290 282 273 263 253 249 246 242
308 307 307 307 307 307 307 308 309 310 311 311 312 313 313 313 313 313 313 313 313 313 312 312 311 310 310 310 309 308 305 302 298 292 285 277 269 260 253 250 247 244
307 306 306 307 307 307 308 309 310 310 311 312 313 314 314 314 314 314 314 314 314 314 313 312 312 311 311 311 310 307 303 299 295 289 282 275 268 261 256 253 250 247
306 306 306 307 307 308 309 310 311 312 312 313 314 315 315 315 315 315 315 315 315 314 314 313 313 312 312 311 310 305 300 297 293 287 282 275 269 264 260 257 254 250
306 306 307 307 308 309 311 312 312 312 313 314 315 315 315 315 315 316 316 316 315 315 315 314 313 313 313 312 309 303 298 296 292 287 283 277 272 268 264 260 258 256
305 306 307 308 309 311 312 312 312 313 314 315 316 316 316 316 316 317 316 316 317 317 316 315 314 314 313 312 307 301 298 296 293 288 283 278 273 270 267 266 263 259
305 306 307 308 310 311 312 312 312 313 315 315 316 317 317 317 317 317 317 318 318 317 316 315 315 314 314 310 305 301 299 297 293 287 281 278 275 273 272 270 265 258
305 306 307 309 311 311 312 312 313 314 315 316 317 317 318 318 318 318 319 319 319 317 316 316 316 315 313 309 305 303 300 296 291 285 281 279 279 278 276 271 264 258
305 306 308 310 311 312 312 313 314 315 316 317 318 318 318 319 319 320 320 320 319 318 317 317 316 315 312 308 307 304 300 295 289 285 284 282 281 280 276 269 263 260
305 306 308 310 311 312 313 313 314 315 316 318 319 319 319 320 320 321 321 320 319 318 317 317 316 314 311 309 307 305 300 293 288 287 287 285 282 279 274 267 263 261
305 307 309 310 312 312 313 314 315 316 317 319 320 320 320 321 322 322 321 320 319 318 317 316 315 313 311 309 307 304 299 293 289 289 290 287 282 276 270 266 264 258
306 307 309 311 312 313 314 315 316 317 319 320 321 321 322 322 323 323 321 320 320 318 317 316 314 313 311 309 306 303 299 295 294 293 293 289 280 272 267 265 263 253
306 308 310 311 312 313 314 315 317 318 320 321 322 322 323 324 324 323 321 321 320 318 317 316 314 313 310 307 305 303 300 299 299 299 296 289 278 269 265 264 260 245
307 308 310 311 313 314 315 316 317 319 320 322 323 323 324 325 324 323 322 321 319 318 317 317 316 313 309 306 305 304 303 303 304 303 297 287 275 266 263 262 256 235
307 309 310 312 313 314 315 317 318 320 321 322 324 325 325 325 324 323 323 321 319 318 319 320 319 314 309 306 306 306 306 308 309 305 296 283 273 266 263 260 249 226
308 309 311 312 313 314 316 317 319 320 322 323 325 325 326 326 325 324 323 321 318 318 321 322 321 315 310 308 309 309 310 311 312 306 293 280 271 266 262 257 240 219
308 309 311 312 313 315 316 318 319 321 323 325 326 326 327 326 325 325 324 321 318 320 323 323 321 317 312 311 312 312 312 314 313 305 291 280 273 266 261 252 232 214
308 310 311 312 313 315 317 318 320 321 324 326 327 328 327 326 326 326 325 321 320 321 324 324 321 317 313 313 314 313 313 314 313 304 293 285 277 267 259 244 223 209
308 310 311 312 314 316 317 319 321 322 325 326 328 329 328 326 327 327 325 322 322 323 324 325 322 317 315 314 314 315 314 315 313 305 297 290 279 266 253 235 216 205
308 310 311 312 314 316 318 319 321 323 325 327 329 329 328 327 328 328 325 324 325 324 324 326 323 318 315 315 315 315 315 315 313 308 302 295 280 262 245 224 209 202
Height
5596 5591 5586 5581 5575 5568 5563 5557 5552 5546 5540 5534 5528 5523 5518 5513 5506 5500 5494 5488 5482 5476 5468 5462 5456 5450 5445 5440 5434 5430 5426 5422 5416 5411 5404 5399 5396 5391 5388 5386 5383 5382
5586 5582 5576 5571 5565 5558 5552 5546 5540 5536 5530 5524 5516 5511 5506 5502 5496 5489 5482 5477 5472 5466 5458 5450 5444 5438 5431 5426 5419 5414 5410 5405 5400 5394 5386 5382 5378 5373 5372 5370 5368 5369
5576 5572 5566 5560 5554 5548 5542 5536 5530 5524 5520 5514 5506 5500 5494 5490 5486 5479 5472 5465 5460 5454 5447 5438 5431 5424 5418 5411 5404 5398 5392 5388 5382 5375 5368 5364 5360 5356 5356 5354 5354 5357
5567 5562 5556 5550 5544 5538 5532 5526 5521 5515 5508 5503 5496 5489 5484 5479 5474 5468 5461 5454 5447 5442 5435 5426 5418 5411 5404 5396 5388 5382 5376 5369 5363 5356 5350 5347 5342 5340 5341 5341 5342 5346
5558 5552 5546 5540 5533 5527 5522 5516 5511 5506 5499 5492 5486 5480 5473 5468 5462 5456 5450 5443 5436 5429 5422 5414 5406 5397 5390 5382 5374 5366 5359 5352 5345 5337 5332 5331 5328 5326 5328 5330 5332 5336
5549 5543 5536 5530 5524 5518 5512 5506 5501 5496 5490 5484 5476 5470 5463 5457 5451 5444 5437 5431 5424 5416 5409 5400 5392 5383 5376 5368 5360 5351 5342 5335 5329 5322 5318 5317 5316 5315 5318 5320 5323 5328
5540 5533 5527 5520 5514 5508 5502 5497 5492 5486 5480 5474 5467 5460 5452 5446 5440 5432 5424 5418 5412 5404 5396 5388 5378 5370 5361 5352 5344 5336 5326 5319 5314 5310 5306 5305 5305 5306 5308 5310 5314 5320
5530 5524 5518 5512 5506 5500 5493 5488 5482 5476 5470 5464 5458 5450 5442 5434 5428 5422 5414 5406 5398 5391 5382 5374 5364 5356 5346 5338 5329 5320 5312 5306 5302 5298 5296 5296 5296 5298 5300 5302 5306 5311
5520 5515 5510 5504 5498 5491 5484 5479 5473 5466 5460 5453 5447 5440 5432 5424 5416 5409 5402 5394 5386 5378 5370 5360 5350 5341 5332 5323 5314 5306 5298 5295 5292 5290 5289 5288 5290 5292 5292 5294 5298 5304
5512 5507 5502 5495 5489 5482 5476 5470 5463 5456 5449 5442 5436 5430 5422 5414 5405 5397 5390 5382 5374 5366 5357 5346 5336 5327 5318 5310 5302 5294 5288 5286 5284 5282 5282 5282 5282 5284 5286 5288 5291 5295
5504 5498 5493 5487 5481 5474 5468 5460 5453 5446 5439 5432 5426 5419 5412 5403 5394 5386 5378 5370 5362 5352 5344 5334 5322 5313 5306 5298 5290 5284 5280 5278 5277 5275 5274 5274 5276 5277 5278 5280 5282 5286
5496 5490 5485 5479 5473 5466 5460 5452 5445 5438 5431 5424 5416 5410 5402 5393 5384 5376 5367 5358 5350 5340 5330 5320 5310 5300 5293 5286 5280 5276 5272 5271 5270 5268 5268 5268 5269 5270 5272 5272 5274 5276
5489 5483 5478 5472 5466 5460 5452 5445 5438 5430 5422 5416 5408 5400 5392 5383 5374 5366 5356 5346 5336 5327 5317 5308 5298 5290 5282 5277 5272 5268 5266 5264 5263 5262 5262 5262 5262 5263 5264 5264 5264 5266
5481 5476 5470 5464 5458 5452 5445 5437 5430 5422 5415 5407 5400 5391 5382 5372 5364 5354 5346 5336 5324 5314 5304 5296 5288 5280 5274 5269 5266 5262 5260 5258 5257 5256 5256 5256 5256 5256 5256 5256 5256 5256
5474 5468 5462 5456 5450 5444 5437 5430 5422 5415 5408 5400 5392 5382 5374 5364 5353 5343 5334 5324 5313 5302 5291 5284 5278 5272 5266 5262 5259 5257 5254 5252 5252 5252 5251 5250 5249 5248 5248 5248 5248 5249
5466 5460 5454 5448 5443 5436 5429 5422 5415 5408 5400 5393 5384 5374 5364 5354 5344 5334 5322 5312 5302 5292 5282 5274 5269 5264 5259 5255 5252 5250 5248 5248 5247 5246 5246 5244 5242 5242 5241 5241 5241 5242
5458 5452 5447 5441 5435 5428 5421 5414 5408 5400 5393 5385 5376 5366 5356 5345 5334 5324 5313 5302 5292 5282 5274 5268 5262 5257 5252 5249 5246 5244 5242 5242 5242 5242 5240 5238 5236 5235 5234 5234 5234 5234
5450 5444 5439 5433 5427 5420 5414 5406 5400 5392 5384 5377 5368 5358 5348 5338 5326 5314 5304 5292 5282 5274 5268 5262 5256 5250 5246 5244 5241 5240 5237 5236 5236 5235 5234 5232 5229 5228 5228 5228 5228 5228
5442 5437 5432 5426 5420 5412 5406 5399 5392 5384 5376 5368 5360 5350 5339 5328 5318 5306 5295 5284 5274 5267 5262 5257 5250 5245 5241 5238 5236 5234 5232 5231 5230 5228 5226 5224 5222 5222 5222 5222 5222 5223
5434 5429 5424 5418 5412 5405 5398 5391 5384 5376 5368 5360 5352 5342 5331 5321 5310 5299 5288 5276 5266 5260 5256 5252 5245 5239 5236 5233 5232 5230 5228 5226 5224 5222 5219 5217 5216 5216 5216 5217 5217 5218
5426 5422 5416 5410 5404 5398 5391 5384 5376 5368 5361 5352 5344 5333 5323 5312 5302 5290 5280 5268 5259 5254 5251 5246 5239 5234 5230 5229 5227 5226 5223 5220 5218 5215 5212 5210 5210 5210 5210 5211 5212 5214
5419 5414 5408 5403 5397 5391 5384 5377 5370 5362 5354 5346 5336 5326 5314 5304 5292 5282 5271 5260 5252 5248 5246 5240 5234 5228 5226 5224 5223 5220 5218 5216 5212 5209 5206 5204 5204 5204 5205 5206 5206 5209
5411 5406 5402 5396 5390 5384 5378 5370 5363 5355 5346 5338 5329 5319 5308 5296 5286 5274 5263 5253 5246 5243 5240 5236 5230 5224 5221 5220 5218 5215 5212 5210 5207 5204 5201 5200 5199 5198 5199 5200 5202 5204
5402 5398 5394 5388 5382 5376 5370 5364 5356 5348 5340 5330 5321 5312 5300 5290 5280 5270 5258 5248 5241 5237 5234 5230 5226 5221 5218 5216 5213 5210 5206 5204 5202 5198 5196 5194 5193 5192 5193 5194 5196 5200
5395 5390 5386 5381 5376 5369 5362 5356 5350 5342 5333 5324 5314 5303 5292 5282 5273 5264 5254 5246 5238 5232 5229 5226 5222 5218 5214 5212 5210 5205 5202 5198 5196 5194 5190 5188 5187 5186 5187 5189 5192 5196
5388 5382 5378 5373 5368 5362 5356 5348 5342 5334 5326 5318 5308 5296 5285 5275 5266 5258 5251 5244 5235 5228 5224 5221 5218 5215 5212 5208 5206 5202 5196 5193 5190 5188 5184 5182 5181 5180 5181 5184 5188 5192